Regional Weather Roundup
Issued by NWS

Home | Current Version | Previous Version | Graphics & Text | Print | Product List | Glossary On
Versions: 1 2 3 4 5 6 7 8 9 10 11 12 13 14 15 16 17 18 19 20 21 22 23 24 25 26 27 28 29 30 31 32 33 34 35 36 37 38 39 40 41 42 43 44 45 46 47 48 49 50
000
ASUS43 KMKX 261420
RWRWI

WISCONSIN REGIONAL WEATHER ROUNDUP
NATIONAL WEATHER SERVICE MILWAUKEE/SULLIVAN WI
900 AM CDT THU MAR 26 2015

NOTE: "FAIR" INDICATES FEW OR NO CLOUDS BELOW 12,000 FEET WITH NO
SIGNIFICANT WEATHER AND/OR OBSTRUCTIONS TO VISIBILITY.

WIZ001-002-006>008-014>016-023>028-261500-
NORTHWEST WISCONSIN

CITY           SKY/WX    TMP DP  RH WIND       PRES   REMARKS
SUPERIOR ARPT  CLOUDY    25  13  62 N12       30.12R WCI  14
ASHLAND        CLOUDY    23  14  68 N17G23    30.08R WCI   9
HAYWARD        FLURRIES  24  14  65 VRB6      30.04R WCI  17
SIREN          CLOUDY    27  15  59 N15       30.08S WCI  16
CUMBERLAND     CLOUDY    28  18  64 NW15G22   30.03R WCI  17
RICE LAKE      CLOUDY    30  18  60 NW12G17   30.05R WCI  20
CHETEK         CLOUDY    30  18  62 NW8       30.04R WCI  22
LADYSMITH      CLOUDY    27  17  67 N18       30.03R WCI  14
EAU CLAIRE     CLOUDY    31  18  58 N12       30.04R WCI  22
MENOMONIE      CLOUDY    31  20  62 NW9       30.05R WCI  23
NEW RICHMOND   CLOUDY    30  18  60 NW16G23   30.07R WCI  18
OSCEOLA        CLOUDY    30  18  60 NW13G18   30.11R WCI  20
$$

WIZ003>005-009-010-017-018-261500-
NORTH CENTRAL WISCONSIN

CITY           SKY/WX    TMP DP  RH WIND       PRES   REMARKS
MANITOWISH WTR LGT SNOW  20  16  82 N12       29.96R WCI   8
ARBOR VITAE    FLURRIES  22  15  75 NW13G18   29.95R WCI  10
WOODRUFF       FLURRIES  22  15  75 NW13G18   29.95R WCI  10
RHINELANDER    FLURRIES  23  16  74 N10G22    29.93R WCI  12
EAGLE RIVER    FLURRIES  22  15  73 NW16      29.92R WCI   9
LAND O LAKES   LGT SNOW  23  18  83 N12       29.93R WCI  11
PHILLIPS       FLURRIES  22  15  74 N10G17    29.98R WCI  11
TOMAHAWK       FLURRIES  24  17  75 NW13      29.95R WCI  12
MEDFORD        LGT SNOW  26  20  76 N13G18    29.95R WCI  15
MERRILL        CLOUDY    27  18  70 NW12G21   29.95R WCI  16
$$

WIZ029-030-035-036-043>047-261500-
CENTRAL WISCONSIN

CITY           SKY/WX    TMP DP  RH WIND       PRES   REMARKS
WAUSAU         CLOUDY    28  19  69 N12G21    29.93R WCI  18
MOSINEE        CLOUDY    28  23  80 NW12      29.95R WCI  18
MARSHFIELD     CLOUDY    30  20  66 NW15G22   29.96R WCI  19
STEVENS POINT  CLOUDY    29  18  65 NW10G17   29.96R WCI  19
WAUPACA        CLOUDY    35  21  57 NW13G20   29.95R WCI  26
WAUTOMA        PTSUNNY   34  22  61 NW12      29.96S WCI  25
WISC RAPIDS    CLOUDY    31  19  61 NW14      29.98R WCI  21
CAMP DOUGLAS   CLOUDY    34  23  64 NW10      29.98R WCI  26
$$

WIZ011>013-019>022-031-037>040-048>050-261500-
NORTHEAST WISCONSIN

CITY           SKY/WX    TMP DP  RH WIND       PRES   REMARKS
ANTIGO         CLOUDY    25  20  79 N13       29.92R WCI  14
SHAWANO        CLOUDY    34  23  64 NW9G16    29.93R WCI  26
OCONTO         CLOUDY    33  24  68 NW7       29.92R WCI  27
STURGEON BAY   CLOUDY    34  21  60 NW10      29.92R WCI  26
GREEN BAY      CLOUDY    35  23  61 NW15      29.93R WCI  25
MANITOWOC      CLOUDY    35  24  64 W9        29.92S WCI  28
APPLETON       CLOUDY    34  21  60 W9G16     29.93R WCI  26
CLINTONVILLE   CLOUDY    32  21  64 NW9       29.94R WCI  24
OSHKOSH        CLOUDY    34  22  61 NW12      29.94R WCI  25
$$

WIZ032>034-041-042-053>061-261500-
SOUTHWEST WISCONSIN

CITY           SKY/WX    TMP DP  RH WIND       PRES   REMARKS
LA CROSSE      CLOUDY    34  22  61 NW15      30.03R WCI  24
SPARTA         CLOUDY    33  20  59 NW14      30.02R WCI  23
VIROQUA        CLOUDY    31  23  74 NW9       30.00R WCI  22
BOSCOBEL       CLOUDY    32  21  64 W6        30.04S WCI  26
PRAIRIE DU CHI SUNNY     31  19  62 W14       30.05S WCI  21
PLATTEVILLE    SUNNY     31  24  73 W12       30.02S WCI  22
$$

WIZ056-057-062-063-064-067-068-261500-
SOUTH CENTRAL WISCONSIN

CITY           SKY/WX    TMP DP  RH WIND       PRES   REMARKS
REEDSBURG      CLOUDY    33  20  61 NW8       29.99R WCI  25
BARABOO/DELLS  CLOUDY    33  20  59 NW13      29.98R WCI  23
LONE ROCK      CLOUDY    33  22  63 W12       30.02R WCI  24
MINERAL POINT  CLOUDY    32  23  69 NW8       30.00S WCI  25
MADISON        CLOUDY    35  21  56 NW9       29.98R WCI  28
MIDDLETON      CLOUDY    35  22  59 NW9       29.99S WCI  28
WATERTOWN      CLOUDY    35  23  61 W6        29.96S WCI  30
MONROE         CLOUDY    30  25  80 W12       29.99S WCI  21
JANESVILLE     PTSUNNY   32  25  74 W8        29.98S WCI  25
$$

WIZ051-052-058>065-066-070>072-261500-
SOUTHEAST WISCONSIN

CITY           SKY/WX    TMP DP  RH WIND       PRES   REMARKS
MILWAUKEE      CLOUDY    37  20  50 NW10      29.96S WCI  30
WAUKESHA       CLOUDY    34  23  64 NW12      29.96R WCI  25
MILWAUKEE/TIMM CLOUDY    36  19  51 NW10      29.96R WCI  28
RACINE         CLOUDY    37  23  56 NW8       29.97S WCI  31
BURLINGTON     CLOUDY    34  22  60 NW8       29.96F WCI  28
KENOSHA        CLOUDY    36  25  64 W8        29.96S WCI  30
FOND DU LAC    CLOUDY    35  22  58 NW8       29.95R WCI  29
SHEBOYGAN      CLOUDY    35  23  61 NW9       29.93S WCI  28
WEST BEND      CLOUDY    34  21  60 NW8       29.95R WCI  27
JUNEAU         CLOUDY    33  22  63 NW8       29.97R WCI  26
$$

LSZ147-162-261500-
LAKE SUPERIOR

STATION/POSITION TIME  TEMP    WIND        PRES    WAVE
                       AIR SEA DIR/SP/G            HT/PER
                 (UTC) (F)     (DEG/KT/KT) (MB)    (FT/S)
DEVILS ISLAND    1400   21     350/ 15/ 17 1020.3R
PORT WING        1300   24     340/ 18/ 26 1019.3
SAXON HARBOR     1340   24     350/ 20/ 23 1017.9R
$$

LMZ867-665-643>646-261500-
LAKE MICHIGAN

STATION/POSITION TIME  TEMP    WIND        PRES    WAVE
                       AIR SEA DIR/SP/G            HT/PER
                 (UTC) (F)     (DEG/KT/KT) (MB)    (FT/S)
NORTHPORT PIER   1403   32     300/  9/ 24 1012.5R
SISTER BAY       1332   33     320/ 17/ 20   N/A
KEWAUNEE LAKESHO 1300   35     290/  7/ 13 1011.6R
SHEBOYGAN LAKESH 1400   36     300/ 11/ 13 1014.4S
PORT WASHINGTON  1300   36     300/  4/  9 1014.9
MILWAUKEE LAKESH 1400   36     310/ 13/ 17   N/A
KENOSHA   LAKESH 1400   36     320/ 10/ 13 1014.6F
$$

TC  - TEMPERATURE IN CELSIUS
VSB - VISIBILITY IN STATUTE MILES
WCI - WIND CHILL INDEX
HX  - HEAT INDEX



USA.gov is the U.S. government's official web portal to all federal, state and local government web resources and services.